Change the Weather History Date:

Monday, August 26, 2013

  Actual Average Record
Temperature  
Mean Temperature 78 °F 71 °F  
Max Temperature 90 °F 82 °F 97 °F (1953)
Min Temperature 66 °F 60 °F 42 °F (1934)
Degree Days  
Heating Degree Days 0 1  
Month to date heating degree days 2 1  
Since 1 June heating degree days 45 35  
Since 1 July heating degree days 11 4  
Cooling Degree Days 13 6  
Month to date cooling degree days 161 194  
Year to date cooling degree days 678 698  
Since 1 June cooling degree days 586 643  
Growing Degree Days 28 (Base 50)    
Moisture  
Dew Point 68 °F    
Average Humidity 72    
Maximum Humidity 93    
Minimum Humidity 50    
Precipitation  
Precipitation 0.00 in 0.14 in 2.75 in (2009)
Month to date precipitation 2.72 3.89  
Year to date precipitation 31.80 24.96  
Snow  
Snow 0.00 in 0.00 in 0.00 in ()
Month to date snowfall 0.0 0.0  
Since 1 June snowfall 0.0 0.0  
Since 1 July snowfall 0.0 0.0  
Snow Depth 0.00 in    
Sea Level Pressure  
Sea Level Pressure 30.09 in    
Wind  
Wind Speed 6 mph (SSW)    
Max Wind Speed 15 mph    
Max Gust Speed 26 mph    
Visibility 10 miles    
Events      
T = Trace of Precipitation, MM = Missing Value Source: NWS Daily Summary

Daily Weather History Graph

Daily Weather History Graph

Search for Another Location

Airport or City:

Trip Planner

Search our weather history database for the weather conditions in past years. The results will help you decide how hot, cold, wet, or windy it might be!

Date:

Astronomy

Aug. 26, 2013 Rise Set
Actual Time 6:15 AM CDT 7:39 PM CDT
Civil Twilight 5:46 AM CDT 8:08 PM CDT
Nautical Twilight 5:11 AM CDT 8:43 PM CDT
Astronomical Twilight 4:33 AM CDT 9:20 PM CDT
Moon 10:42 PM CDT (8/26) 12:24 PM CDT (8/26)
Length of Visible Light 14h 22m
Length of Day
13h 23m
Waning Gibbous, 66% of the Moon is Illuminated
Aug 26
Waning Gibbous
Aug 28
Last Quarter
Sep 5
New
Sep 12
First Quarter
Sep 19
Full

Hourly Weather History & Observations

Time (CDT) Temp. Heat Index Dew Point Humidity Pressure Visibility Wind Dir Wind Speed Gust Speed Precip Events Conditions
12:54 AM 69.1 °F - 66.0 °F 90% 30.14 in 8.0 mi South 5.8 mph - N/A   Clear
1:54 AM 69.1 °F - 64.9 °F 87% 30.14 in 8.0 mi SSW 5.8 mph - N/A   Clear
2:54 AM 66.9 °F - 64.0 °F 90% 30.15 in 8.0 mi SSW 6.9 mph - N/A   Clear
3:54 AM 66.9 °F - 64.0 °F 90% 30.13 in 8.0 mi SSW 8.1 mph - N/A   Clear
4:54 AM 69.1 °F - 64.0 °F 84% 30.14 in 10.0 mi SW 4.6 mph - N/A   Clear
5:54 AM 66.9 °F - 63.0 °F 87% 30.14 in 10.0 mi SSE 5.8 mph - N/A   Scattered Clouds
6:54 AM 66.9 °F - 63.0 °F 87% 30.15 in 10.0 mi South 5.8 mph - N/A   Mostly Cloudy
7:54 AM 69.1 °F - 64.9 °F 87% 30.15 in 10.0 mi South 5.8 mph - N/A   Overcast
8:54 AM 73.9 °F - 66.9 °F 79% 30.15 in 10.0 mi SSW 6.9 mph - N/A   Overcast
9:54 AM 80.1 °F 82.9 °F 69.1 °F 69% 30.15 in 10.0 mi WSW 8.1 mph - N/A   Overcast
10:54 AM 82.9 °F 87.5 °F 71.1 °F 67% 30.14 in 10.0 mi SW 6.9 mph - N/A   Mostly Cloudy
11:54 AM 86.0 °F 92.2 °F 72.0 °F 63% 30.12 in 10.0 mi SW 6.9 mph - N/A   Mostly Cloudy
12:54 PM 89.1 °F 96.0 °F 72.0 °F 57% 30.10 in 10.0 mi Variable 4.6 mph - N/A   Mostly Cloudy
1:54 PM 88.0 °F 94.7 °F 72.0 °F 59% 30.07 in 10.0 mi SW 5.8 mph - N/A   Mostly Cloudy
2:54 PM 89.1 °F 96.0 °F 72.0 °F 57% 30.05 in 10.0 mi SW 9.2 mph - N/A   Mostly Cloudy
3:54 PM 90.0 °F 96.9 °F 72.0 °F 55% 30.03 in 10.0 mi SW 10.4 mph - N/A   Mostly Cloudy
4:54 PM 89.1 °F 92.9 °F 68.0 °F 50% 30.02 in 10.0 mi WSW 11.5 mph 19.6 mph N/A   Mostly Cloudy
5:54 PM 88.0 °F 92.9 °F 70.0 °F 55% 30.01 in 10.0 mi WSW 8.1 mph - N/A   Partly Cloudy
6:54 PM 84.9 °F 89.4 °F 70.0 °F 61% 30.01 in 10.0 mi SW 6.9 mph - N/A   Partly Cloudy
7:54 PM 80.1 °F 82.9 °F 69.1 °F 69% 30.00 in 10.0 mi South 4.6 mph - N/A   Mostly Cloudy
8:54 PM 77.0 °F - 70.0 °F 79% 30.01 in 10.0 mi South 4.6 mph - N/A   Partly Cloudy
9:54 PM 75.0 °F - 70.0 °F 84% 30.01 in 10.0 mi South 6.9 mph - N/A   Partly Cloudy
10:54 PM 75.0 °F - 70.0 °F 84% 30.01 in 10.0 mi South 4.6 mph - N/A   Partly Cloudy
11:54 PM 75.0 °F - 71.1 °F 87% 30.01 in 10.0 mi Calm Calm - N/A   Scattered Clouds